[[{"header":{"parameterUnit":"m.s-1","parameterCategory":1,"la1":30.2992,"la2":30.254,"lo1":-89.0895,"lo2":-89.0443,"dy":0.0025,"dx":0.0025,"nx":19,"ny":19,"refTime":"2026-05-14T09:00:00:Z","depth":0,"parameterNumber":2,"parameterNumberName":"U-component_of_WINDS"},"data":[0,0,0,-2.356,-2.3563,-2.3681,-2.3681,-2.3849,-2.3851,0,0,0,0,0,0,0,0,0,0,0,-2.3535,-2.3537,-2.356,-2.3563,-2.3681,-2.3681,-2.3849,-2.3851,0,0,0,0,0,0,0,0,0,0,0,-2.3535,-2.3536,-2.3538,-2.3564,-2.3681,-2.3681,-2.3849,-2.3754,0,0,0,0,0,0,0,0,0,0,-2.3637,-2.3623,-2.3536,-2.3538,-2.3565,-2.368,-2.3681,-2.3749,-2.376,-2.3804,0,-2.3844,0,-2.385,-2.3863,-2.3864,0,0,0,-2.3556,-2.3614,-2.3637,-2.3538,-2.3566,-2.368,-2.3626,-2.3755,-2.3767,-2.3818,-2.3846,-2.3852,-2.3853,-2.3865,-2.3865,-2.4138,-2.414,0,0,-2.355,-2.3562,-2.3628,-2.3645,-2.3627,-2.3622,-2.3629,-2.3762,-2.3794,-2.3847,-2.3856,-2.3856,-2.3866,-2.3867,-2.4137,-2.4139,0,0,0,-2.3536,-2.3558,-2.3577,-2.3639,-2.3658,-2.3626,-2.3634,-2.3788,-2.3793,-2.3857,-2.3858,-2.3867,-2.3869,-2.4135,-2.4137,-2.4227,0,0,0,-2.3532,-2.355,-2.3574,-2.3583,-2.3656,-2.3725,-2.3658,-2.3784,-2.3799,-2.3857,-2.3867,-2.3871,-2.4133,-2.4136,-2.4221,-2.4268,0,0,0,-2.3524,-2.3549,-2.3569,-2.3583,-2.3634,-2.3722,-2.3735,-2.3787,-2.38,-2.3864,-2.3871,-2.4132,-2.4136,-2.4215,-2.4258,-2.4342,0,0,0,-2.352,-2.3648,-2.357,-2.3714,-2.3633,-2.3777,-2.3734,-2.384,-2.3906,-2.3868,-2.4133,-2.4137,-2.4214,-2.4253,-2.4336,-2.4414,-2.4448,0,0,-2.3688,-2.3669,-2.3752,-2.3686,-2.3846,-2.3758,-2.3932,-2.3982,-2.3977,-2.4085,-2.4092,-2.4223,-2.4258,-2.4341,-2.4635,-2.4662,0,0,0,-2.3809,-2.3869,-2.3909,-2.3972,-2.4013,-2.4051,-2.4073,-2.4092,-2.4182,-2.4035,-2.4276,-2.4297,-2.4345,-2.4381,-2.4404,-2.4445,-2.4155,-2.4154,-2.4154,-2.4064,-2.4051,-2.4188,-2.4189,-2.4251,-2.4272,-2.4321,-2.435,-2.432,-2.4377,-2.4408,-2.4588,-2.4632,-2.4649,-2.4691,-2.4449,-2.445,-2.445,-2.445,-2.4308,-2.439,-2.4347,-2.4463,-2.4449,-2.4548,-2.4574,-2.4549,-2.4638,-2.4563,-2.4605,-2.4524,-2.4679,-2.4715,-2.4457,-2.4456,-2.4455,-2.4454,-2.4454,-2.4473,-2.4509,-2.453,-2.4619,-2.4691,-2.4688,-2.4776,-2.4761,-2.4747,-2.4789,-2.482,-2.4818,-2.4814,-2.4805,-2.4806,-2.4806,-2.4807,-2.4807,-2.4808,-2.4634,-2.4654,-2.473,-2.4784,-2.4822,-2.4871,-2.4895,-2.4932,-2.497,-2.4952,-2.4952,-2.4916,-2.4696,-2.4641,-2.4817,-2.4816,-2.4814,-2.4813,-2.4813,-2.4884,-2.4825,-2.4942,-2.4981,-2.5043,-2.5115,-2.5094,-2.5173,-2.5202,-2.5246,-2.5201,-2.5042,-2.5021,-2.5003,-2.4957,-2.5204,-2.5204,-2.5204,-2.5204,-2.5022,-2.501,-2.5125,-2.5188,-2.5248,-2.5241,-2.5374,-2.5394,-2.5406,-2.5423,-2.5386,-2.5324,-2.5306,-2.5295,-2.5271,-2.5227,-2.5538,-2.5539,-2.5539,-2.5174,-2.5167,-2.5282,-2.5292,-2.534,-2.5382,-2.5506,-2.5581,-2.5582,-2.5552,-2.5436,-2.5422,-2.5322,-2.529,-2.5256,-2.5218,-2.5138,0,0]},{"header":{"parameterUnit":"m.s-1","parameterCategory":1,"la1":30.2992,"la2":30.254,"lo1":-89.0895,"lo2":-89.0443,"dy":0.0025,"dx":0.0025,"nx":19,"ny":19,"refTime":"2026-05-14T09:00:00:Z","depth":0,"parameterNumber":3,"parameterNumberName":"V-component_of_WINDS"},"data":[0,0,0,-1.3278,-1.3279,-1.337,-1.337,-1.347,-1.347,0,0,0,0,0,0,0,0,0,0,0,-1.3243,-1.3243,-1.3277,-1.328,-1.337,-1.337,-1.347,-1.347,0,0,0,0,0,0,0,0,0,0,0,-1.3243,-1.3243,-1.3244,-1.328,-1.337,-1.3371,-1.3469,-1.3406,0,0,0,0,0,0,0,0,0,0,-1.3321,-1.3282,-1.3243,-1.3244,-1.328,-1.337,-1.3371,-1.3404,-1.341,-1.3422,0,-1.3433,0,-1.3453,-1.3476,-1.3477,0,0,0,-1.3285,-1.3277,-1.3308,-1.3244,-1.3281,-1.337,-1.3331,-1.3408,-1.3415,-1.3431,-1.3435,-1.3439,-1.3455,-1.3477,-1.3477,-1.3535,-1.3535,0,0,-1.328,-1.3255,-1.3303,-1.3313,-1.33,-1.3328,-1.3333,-1.3412,-1.3413,-1.3435,-1.3441,-1.3457,-1.3477,-1.3478,-1.3535,-1.3535,0,0,0,-1.3262,-1.3251,-1.3281,-1.3308,-1.3326,-1.333,-1.3337,-1.341,-1.3422,-1.3442,-1.3458,-1.3478,-1.3479,-1.3535,-1.3535,-1.3513,0,0,0,-1.3259,-1.3241,-1.3279,-1.3264,-1.3324,-1.337,-1.3332,-1.3417,-1.3426,-1.3457,-1.3478,-1.348,-1.3535,-1.3535,-1.3514,-1.3507,0,0,0,-1.324,-1.3238,-1.3249,-1.3262,-1.3301,-1.3369,-1.3386,-1.3419,-1.3435,-1.3477,-1.348,-1.3535,-1.3535,-1.3514,-1.3508,-1.3515,0,0,0,-1.3211,-1.3227,-1.3248,-1.3272,-1.33,-1.3355,-1.3386,-1.3428,-1.346,-1.3478,-1.3535,-1.3535,-1.3515,-1.3508,-1.3515,-1.3517,-1.3515,0,0,-1.3217,-1.3227,-1.3243,-1.3265,-1.331,-1.3344,-1.3385,-1.3438,-1.3463,-1.3509,-1.3511,-1.3514,-1.3508,-1.3515,-1.3514,-1.3513,0,0,0,-1.3236,-1.3247,-1.3265,-1.3296,-1.3338,-1.3373,-1.3422,-1.3441,-1.3482,-1.3483,-1.3519,-1.3516,-1.3521,-1.3523,-1.3522,-1.3528,-1.3535,-1.3535,-1.3535,-1.3208,-1.3242,-1.3271,-1.3315,-1.3345,-1.3396,-1.3422,-1.3457,-1.348,-1.3488,-1.3502,-1.3498,-1.3499,-1.3498,-1.3504,-1.3506,-1.3506,-1.3505,-1.3505,-1.322,-1.3241,-1.3274,-1.3314,-1.3348,-1.3381,-1.343,-1.3446,-1.348,-1.349,-1.3497,-1.3505,-1.3496,-1.3503,-1.3504,-1.3504,-1.3504,-1.3505,-1.3505,-1.3206,-1.3222,-1.3247,-1.3296,-1.3329,-1.3372,-1.3404,-1.3434,-1.3462,-1.3469,-1.3486,-1.3487,-1.3491,-1.3475,-1.3475,-1.3475,-1.3475,-1.3475,-1.3475,-1.3181,-1.321,-1.3234,-1.3281,-1.3305,-1.334,-1.3391,-1.3415,-1.3448,-1.3468,-1.3468,-1.349,-1.3489,-1.3488,-1.3475,-1.3475,-1.3475,-1.3475,-1.3475,-1.318,-1.3186,-1.3223,-1.3248,-1.3304,-1.3335,-1.3373,-1.3419,-1.3443,-1.3457,-1.3479,-1.3473,-1.3485,-1.3486,-1.3485,-1.3472,-1.3472,-1.3472,-1.3472,-1.3168,-1.3177,-1.3223,-1.326,-1.3299,-1.3338,-1.3378,-1.3417,-1.3458,-1.3475,-1.3481,-1.3483,-1.3482,-1.3494,-1.3495,-1.3495,-1.3484,-1.3484,-1.3484,-1.3169,-1.3184,-1.3213,-1.3256,-1.3303,-1.3341,-1.3379,-1.3418,-1.3466,-1.3486,-1.3488,-1.3488,-1.3491,-1.349,-1.3509,-1.351,-1.3511,0,0]}]]